Location: ??????
(38.0677°N, 22.9870°E)
Time: 14:55:02
(UTC+00:00)

CZ-2C R/B - Pass Details

Date: 11 August 2024
Orbit: 666 x 777 km, 98.4° (Epoch: 09 September)

Event Time Altitude Azimuth Distance (km) Brightness Sun altitude
Rises 01:17:40 0° 24° (NNE) 3,265 6.9 -24.3°
Reaches altitude 10° 01:20:16 10° 35° (NE) 2,335 6.1 -23.9°
Maximum altitude 01:24:47 30° 96° (E) 1,355 4.1 -23.3°
Enters shadow 01:28:42 13° 154° (SSE) 2,123 4.6 -22.7°
